DW1996 Weather Reports


Display with metric or nautical units.
time (UTC)temp
F
wind
direction
speed
MPH
gust
MPH
rain 1hr
in
rain 24hr
in
rain mn
in
humidity
%
barometer
mb
20260831203032 93 155 6.0 14.0 0.00 0.00 0.00 65 1012.4
20260831201532 94 103 5.0 13.0 0.00 0.00 0.00 64 1012.6
20260831200041 94 115 8.0 16.0 0.00 0.00 0.00 62 1012.6
20260831194532 94 150 5.0 15.0 0.00 0.00 0.00 64 1012.8
20260831193037 94 114 7.0 15.0 0.00 0.00 0.00 62 1013.1
20260831191535 94 107 6.0 13.0 0.00 0.00 0.00 64 1013.3
20260831190029 95 150 7.0 15.0 0.00 0.00 0.00 59 1013.3
20260831184528 95 159 8.0 18.0 0.00 0.01 0.00 58 1013.3
20260831183026 96 118 7.0 17.0 0.00 0.01 0.00 55 1013.3
20260831181526 96 118 8.0 15.0 0.00 0.01 0.00 56 1013.5
20260831180039 96 216 6.0 17.0 0.00 0.01 0.00 56 1013.5
20260831174525 96 172 8.0 15.0 0.00 0.03 0.00 56 1013.5
20260831173023 97 136 5.0 16.0 0.00 0.03 0.00 55 1013.7
20260831171521 97 133 6.0 12.0 0.00 0.03 0.00 55 1013.9
20260831170018 97 145 5.0 13.0 0.00 0.03 0.00 51 1013.8
20260831164530 96 167 3.0 14.0 0.00 0.03 0.00 53 1013.8
20260831163012 96 142 4.0 14.0 0.00 0.03 0.00 54 1013.9
20260831161507 95 207 5.0 11.0 0.00 0.03 0.00 55 1013.9
20260831160004 94 156 6.0 11.0 0.00 0.03 0.00 57 1014.0
20260831154605 93 180 7.0 16.0 0.00 0.03 0.00 59 1013.8
20260831153101 92 187 8.0 15.0 0.00 0.03 0.00 63 1013.8
20260831151557 91 203 7.0 14.0 0.00 0.03 0.00 66 1013.8
20260831150050 90 202 6.0 12.0 0.00 0.03 0.00 69 1013.8
20260831144548 89 184 5.0 12.0 0.00 0.03 0.00 71 1013.7
20260831143050 89 185 5.0 10.0 0.00 0.03 0.00 74 1013.7
20260831141539 87 203 5.0 10.0 0.00 0.03 0.00 75 1013.9
20260831140036 86 196 4.0 9.0 0.00 0.03 0.00 78 1013.9
20260831134533 85 184 5.0 10.0 0.00 0.03 0.00 80 1013.6
20260831133030 84 200 3.0 7.0 0.00 0.03 0.00 82 1013.5
20260831131530 83 193 0.0 4.0 0.00 0.03 0.00 85 1013.4
20260831130029 82 186 0.0 0.0 0.00 0.03 0.00 86 1013.3
20260831124530 81 188 0.0 0.0 0.00 0.03 0.00 87 1013.1
20260831123028 81 188 0.0 0.0 0.00 0.03 0.00 87 1013.0
20260831121528 81 167 0.0 0.0 0.00 0.03 0.00 87 1012.8
20260831120037 81 167 0.0 0.0 0.00 0.03 0.00 87 1012.6
20260831114533 81 188 0.0 0.0 0.00 0.03 0.00 86 1012.5
20260831113027 81 196 0.0 0.0 0.00 0.03 0.00 86 1012.5
20260831111525 81 196 0.0 0.0 0.00 0.03 0.00 86 1012.3
20260831110024 81 196 0.0 0.0 0.00 0.03 0.00 85 1012.2
20260831104523 82 196 0.0 0.0 0.00 0.03 0.00 85 1012.3
20260831103022 82 196 0.0 0.0 0.00 0.03 0.00 85 1012.3
20260831101520 82 187 0.0 0.0 0.00 0.03 0.00 85 1012.4
20260831100018 82 142 0.0 0.0 0.00 0.03 0.00 84 1012.4
20260831094518 82 162 0.0 0.0 0.00 0.03 0.00 84 1012.4
20260831093030 82 187 0.0 1.0 0.00 0.03 0.00 84 1012.4
20260831091515 83 210 2.0 6.0 0.00 0.03 0.00 84 1012.4
20260831090014 83 180 1.0 5.0 0.00 0.03 0.00 83 1012.5
20260831084514 83 188 1.0 5.0 0.00 0.03 0.00 83 1012.5
20260831083011 83 188 4.0 7.0 0.00 0.03 0.00 83 1012.6
20260831081513 83 202 2.0 7.0 0.00 0.03 0.00 82 1012.5
20260831080009 83 194 3.0 7.0 0.00 0.03 0.00 82 1012.6
20260831074507 83 196 3.0 8.0 0.00 0.03 0.00 82 1012.8
20260831073005 84 188 3.0 8.0 0.00 0.03 0.00 81 1012.9
20260831071510 84 198 4.0 9.0 0.00 0.03 0.00 81 1013.1
20260831070001 84 184 5.0 10.0 0.00 0.03 0.00 80 1013.2
20260831064600 84 199 4.0 10.0 0.00 0.03 0.00 80 1013.2
20260831063058 84 192 5.0 10.0 0.00 0.03 0.00 80 1013.3
20260831061557 84 194 3.0 10.0 0.00 0.03 0.00 80 1013.3
20260831060056 84 207 5.0 9.0 0.00 0.03 0.00 80 1013.4
20260831054557 84 227 5.0 10.0 0.00 0.03 0.00 81 1013.5
20260831053053 85 196 5.0 12.0 0.00 0.03 0.00 80 1013.3
20260831051553 85 180 4.0 10.0 0.00 0.03 0.00 80 1013.5
20260831050049 85 177 3.0 8.0 0.00 0.03 0.00 79 1013.5
20260831044600 85 189 5.0 11.0 0.00 0.03 0.03 79 1013.5
20260831043048 85 169 7.0 11.0 0.00 0.03 0.03 80 1013.6
20260831041558 86 159 6.0 14.0 0.00 0.03 0.03 80 1013.5
20260831040047 86 160 6.0 12.0 0.00 0.03 0.03 79 1013.3
20260831034549 86 171 5.0 10.0 0.00 0.03 0.03 79 1013.2
20260831033045 85 144 4.0 10.0 0.00 0.03 0.03 79 1013.0
20260831031544 86 164 4.0 12.0 0.00 0.03 0.03 80 1013.0
20260831030045 86 168 5.0 11.0 0.00 0.03 0.03 80 1012.8
20260831024544 86 144 5.0 10.0 0.00 0.03 0.03 80 1012.4
20260831023042 86 199 5.0 12.0 0.00 0.03 0.03 79 1012.4
20260831021542 86 195 5.0 12.0 0.00 0.03 0.03 79 1012.2
20260831020041 86 152 5.0 13.0 0.00 0.03 0.03 79 1012.0
20260831014543 87 142 7.0 12.0 0.00 0.03 0.03 79 1011.9
20260831013042 87 130 7.0 13.0 0.00 0.03 0.03 78 1011.8
20260831011538 87 136 7.0 14.0 0.00 0.03 0.03 77 1011.7
20260831010042 87 182 6.0 12.0 0.00 0.03 0.03 76 1011.5
20260831004538 87 176 7.0 14.0 0.00 0.03 0.03 74 1011.5
20260831003037 88 145 7.0 14.0 0.00 0.03 0.03 73 1011.4
20260831001537 88 162 8.0 15.0 0.00 0.03 0.03 73 1011.3
20260831000036 89 201 7.0 17.0 0.00 0.03 0.03 73 1011.2
20260830234551 89 124 9.0 16.0 0.00 0.03 0.03 72 1011.3
20260830233034 90 153 8.0 16.0 0.00 0.03 0.03 71 1011.2
20260830231534 90 186 8.0 18.0 0.00 0.03 0.03 69 1011.3
20260830230033 90 154 9.0 16.0 0.00 0.03 0.03 70 1011.3
20260830224533 91 133 6.0 14.0 0.00 0.03 0.03 69 1011.3
20260830223037 92 170 9.0 14.0 0.00 0.03 0.03 67 1011.2
20260830221535 92 128 8.0 16.0 0.00 0.03 0.03 65 1011.2
20260830220031 92 108 5.0 15.0 0.00 0.03 0.03 64 1011.2
20260830214530 92 132 9.0 14.0 0.00 0.03 0.03 64 1011.3
20260830213028 93 153 5.0 14.0 0.00 0.03 0.03 65 1011.4
20260830211529 93 144 6.0 12.0 0.00 0.03 0.03 65 1011.5
20260830210025 93 155 6.0 15.0 0.00 0.03 0.03 65 1011.7
20260830204522 93 121 5.0 13.0 0.00 0.03 0.03 66 1012.0